"Pseudo-MPEC" for P21K19Z

Created 2023 Sep 24 14:22:30 UT using Find_Orb

Click here for an explanation of pseudo-MPECs

 
 Astrometry: 
     P21K19Z* C2023 09 198IY.uVpy861hp)pEXyNEhDY2WibXfYpi8$dHN=:eN(5XyZjRarQ)F52
     P21K19Z  C2023 09 19pd;'-X_MAstrometry7U)3[QxE'MM_QO2lur(7jo_=`oZi\;@x9?F52
     P21K19Z  C2023 09 19YflPKM'U_sWWnO`_)P.Cmnl'](BW'6v:VCj(Jq7cjnA9w'R[1a$XF52
     P21K19Z  C2023 09 19/J:GR\$3rUN)R1je4p,MGg(RA`eP0%w=;VPhe$q=w\sA^^UTE]UfF51
     P21K19Z  C2023 09 19=^?^x^h/cf$vVla5cXfEQ-)i74yG!_tT]XwFu=Ly9]FTr/2^/cElF51
     P21K19Z  C2023 09 21Ra^A;+v1jJfM(=Nredacted;WZTVs7M/f9GOVFAbb%)#0Y4T)T\eW68
     P21K19Z  C2023 09 21q0BQdS$V/+?uDgJTgF=OKR6ZAj=uL)G6Kx!$#W4.vc-=ha_4$49YW68
     P21K19Z  C2023 09 21AO9t07F98]?78wnI1VyOcq=%V+]DD?N/[H@MH3e_RVQP$;[TjxKaW68
     P21K19Z  C2023 09 21#[clickl;Yk1SsAhu;;wN[]'k4WpirQw=)$a]Kpp3IC.8I-;RBRYW68
     P21K19Z  C2023 09 214Aj*d5aYc8%=[J3otVWfN'MCYpPl*q\h5RWv2u9$UmA6=._khereM28
     P21K19Z  C2023 09 21=WFx+i1Us#9j9'Yk^UW3H5h;VYYrJ\5\(gALxvEU5jHpIn.Y%A';M28
     P21K19Z  C2023 09 21dwKwVjoZ_pcL7i%g44X]L\QZ;VvK@sQ=)u2!K4xL-W9vkpTNBjY#M28
     P21K19Z KB2023 09 23+jY\oyUF9A(WwTko,q#=eS.5a7WRJ47:msdFO0B,yy)-DR9pU05bY05
     P21K19Z KB2023 09 23JJ/[VZpmN=glp#Z8/3kl@iDforY_TitpbxtKZPexplanation_*DY05
     P21K19Z KB2023 09 23h!eZ?5]TMFgrl.akA!yeuo'Nj,.tllrZm]:grRuyRKy$3D4CeclFY05

Station data:
(F51) Pan-STARRS 1, Haleakala  (N20.707234 W156.255910)  US/Hawaii.
   Observers J. Bulger, T. Lowe, A. Schultz, M. Willman. Measurers K.
   Chambers, S. Chastel, T. de Boer, L. Denneau, J. Fairlamb, H. Flewelling,
   M. Huber, C.-C. Lin, E. Magnier, Y. Ramanjooloo, R. Wainscoat, R. Weryk.
   1.8-m Ritchey-Chrétien + CCD.
(F52) Pan-STARRS 2, Haleakala  (N20.707382 W156.255910)  US/Hawaii.
   Observers J. Bulger, T. Dukes, T. Lowe, A. Schultz, M. Willman. Measurers
   K. Chambers, S. Chastel, T. de Boer, L. Denneau, J. Fairlamb, H.
   Flewelling, M. Huber, C.-C. Lin, E. Magnier, Y. Ramanjooloo, R. Wainscoat,
   R. Weryk. 1.8-m Ritchey-Chrétien + CCD.
(M28) Lesedi Telescope-SAAO Observatory, Sutherland  (S32.379790 E20.810640)
   South Africa.  Observer N. Erasmus. 1.0-m f/8 Reflector + CCD.
(W68) ATLAS Chile, Rio Hurtado  (S30.471010 W70.764980)  Chile.  Observers L.
   Denneau, R. Siverd, J. Tonry, H. Weiland. Measurers L. Denneau, N.
   Erasmus, A. Fitzsimmons, A. Lawrence, J. Robinson, R. Siverd, J. Tonry, H.
   Weiland. 0.5-m reflector + CCD.
(Y05) SONEAR Wykrota-CEAMIG, Serra da Piedade  (S19.824251 W43.690000)
   Brazil.  Observer C. Jacques. 0.45-m f/2.9 reflector + CMO.

Orbital elements:  P21K19Z
   Perigee 2023 Sep 23.46777 +/- 2.75e-5 TT = 11:13:35 (JD 2460210.96777)
Epoch 2023 Sep 23.0 TT = JDT 2460210.5                           AutoNEOCP
q376958.274 +/- 613                 (J2000 equator)
H   26.42 G 0.15                    Peri.  286.96807 +/- 0.0019
                                    Node   208.77701 +/- 0.00053
e 124.7033518 +/- 0.611             Incl.   97.72630 +/- 0.0013
14 of 15 observations 2023 Sept. 19-23; mean residual 0".55
Residuals in arcseconds: 
230919 F52  .38+  .14+    230921 W68  .39-  .01+    230921 M28  1.3-  1.1+    
230919 F52  .14+  .13-    230921 W68  .20-  1.7-    230921 M28( 1.7-  1.2+)   
230919 F52  .14+  .09+    230921 W68  .08-  .49-    230923 Y05  .08+  .12+    
230919 F51  .22-  .28-    230921 W68  .06-  .04+    230923 Y05  .13+  .11-    
230919 F51  .07+  .26+    230921 M28  1.2-  .49+    230923 Y05  .49+  .40-    

Ephemerides (geocentric):
Date (UTC) HH   RA             Dec           delta  r     elong  mag " sig PA
---- --------  ------------   ------------  ------ ------ -----  --- --------
2023 09 24 14  13 55 54.392   -01 29 13.30  .00781 0.9963  28.1 24?? 10.9   3
2023 09 24 15  13 55 33.754   -00 51 27.73  .00807 0.9961  28.0 24?? 11.1   3
2023 09 24 16  13 55 14.407   -00 16 04.54  .00834 0.9958  27.9 24?? 11.2   2
2023 09 24 17  13 54 56.231   +00 17 08.88  .00860 0.9956  27.8 24?? 11.3   2
2023 09 24 18  13 54 39.123   +00 48 23.73  .00886 0.9953  27.7 25?? 11.4   2
2023 09 24 19  13 54 22.989   +01 17 50.00  .00913 0.9951  27.6 25?? 11.5   1
2023 09 24 20  13 54 07.747   +01 45 36.60  .00939 0.9948  27.5 25?? 11.6   1
2023 09 24 21  13 53 53.324   +02 11 51.56  .00966 0.9946  27.5 25?? 11.7   1
2023 09 24 22  13 53 39.656   +02 36 42.04  .00993 0.9943  27.4 25?? 11.8   1
2023 09 24 23  13 53 26.681   +03 00 14.52  .01019 0.9941  27.4 25?? 11.9   0
2023 09 25 00  13 53 14.350   +03 22 34.85  .01046 0.9938  27.3 25?? 12.0   0
2023 09 25 01  13 53 02.612   +03 43 48.31  .01073 0.9936  27.3 25?? 12.0   0
2023 09 25 02  13 52 51.426   +04 03 59.68  .01100 0.9933  27.3 25?? 12.1   0
2023 09 25 03  13 52 40.753   +04 23 13.32  .01127 0.9931  27.2 25?? 12.2   0
2023 09 25 04  13 52 30.557   +04 41 33.18  .01154 0.9928  27.2 25?? 12.2   0
2023 09 25 05  13 52 20.806   +04 59 02.89  .01180 0.9926  27.2 25?? 12.3 179
2023 09 25 06  13 52 11.470   +05 15 45.74  .01207 0.9923  27.2 25?? 12.4 179
2023 09 25 07  13 52 02.523   +05 31 44.76  .01234 0.9921  27.2 25?? 12.4 179
2023 09 25 08  13 51 53.940   +05 47 02.70  .01261 0.9918  27.2 25?? 12.5 179
2023 09 25 09  13 51 45.699   +06 01 42.13  .01288 0.9916  27.2 25?? 12.5 179
2023 09 25 10  13 51 37.778   +06 15 45.37  .01316 0.9913  27.1 25?? 12.6 179
2023 09 25 11  13 51 30.158   +06 29 14.60  .01343 0.9911  27.1 26?? 12.6 179
2023 09 25 12  13 51 22.823   +06 42 11.79  .01370 0.9908  27.1 26?? 12.7 178
2023 09 25 13  13 51 15.755   +06 54 38.79  .01397 0.9905  27.1 26?? 12.7 178
2023 09 25 14  13 51 08.939   +07 06 37.31  .01424 0.9903  27.1 26?? 12.8 178
2023 09 25 15  13 51 02.362   +07 18 08.92  .01451 0.9900  27.1 26?? 12.8 178
2023 09 25 16  13 50 56.010   +07 29 15.08  .01478 .98979  27.1 26?? 12.8 178
2023 09 25 17  13 50 49.872   +07 39 57.17  .01505 .98953  27.1 26?? 12.9 178
2023 09 25 18  13 50 43.935   +07 50 16.44  .01533 .98928  27.1 26?? 12.9 178
2023 09 25 19  13 50 38.191   +08 00 14.07  .01560 .98903  27.1 26?? 12.9 178
2023 09 25 20  13 50 32.628   +08 09 51.18  .01587 .98877  27.1 26?? 13.0 178
2023 09 25 21  13 50 27.238   +08 19 08.78  .01614 .98852  27.1 26?? 13.0 178
2023 09 25 22  13 50 22.013   +08 28 07.84  .01642 .98826  27.1 26?? 13.0 177
2023 09 25 23  13 50 16.944   +08 36 49.25  .01669 .98801  27.1 26?? 13.1 177
2023 09 26 00  13 50 12.023   +08 45 13.86  .01696 .98776  27.1 26?? 13.1 177
2023 09 26 01  13 50 07.245   +08 53 22.46  .01723 .98750  27.1 26?? 13.1 177
2023 09 26 02  13 50 02.601   +09 01 15.79  .01751 .98725  27.1 26?? 13.2 177
2023 09 26 03  13 49 58.087   +09 08 54.54  .01778 .98699  27.1 26?? 13.2 177
2023 09 26 04  13 49 53.696   +09 16 19.37  .01805 .98674  27.1 26?? 13.2 177
2023 09 26 05  13 49 49.422   +09 23 30.90  .01833 .98648  27.1 26?? 13.2 177
2023 09 26 06  13 49 45.261   +09 30 29.71  .01860 .98623  27.1 26?? 13.3 177
2023 09 26 07  13 49 41.208   +09 37 16.35  .01887 .98598  27.1 26?? 13.3 177
2023 09 26 08  13 49 37.258   +09 43 51.32  .01915 .98572  27.1 26?? 13.3 177
2023 09 26 09  13 49 33.406   +09 50 15.12  .01942 .98547  27.1 26?? 13.3 177
2023 09 26 10  13 49 29.649   +09 56 28.22  .01969 .98521  27.1 26?? 13.3 177
2023 09 26 11  13 49 25.983   +10 02 31.04  .01997 .98496  27.1 26?? 13.4 177
2023 09 26 12  13 49 22.404   +10 08 24.00  .02024 .98470  27.1 26?? 13.4 177
2023 09 26 13  13 49 18.908   +10 14 07.49  .02052 .98445  27.1 26?? 13.4 177